(306799) = 2001 PK31

Discovered at Palomar on 2001-08-10 by NEAT.

Orbit

Orbit type: Main Belt

Note: WebGL enabled browser required.

epoch2023-02-25.0
epoch JD2460000.5
perihelion date2020-06-11.67653
perihelion JD2459012.17653
argument of perihelion (°)92.79568
ascending node (°)252.30141
inclination (°)11.81244
eccentricity0.1622858
perihelion distance (AU)2.3426286
Tisserand w.r.t. Jupiter3.3
ΔV w.r.t. Earth (km/sec)10.3
semimajor axis (AU)2.7964533
mean anomaly (°)208.30111
mean daily motion (°/day)0.21076210
aphelion distance (AU)3.250
period (years)4.68
P-vector [x]0.94621233
P-vector [y]-0.31139153
P-vector [z]0.08784959
Q-vector [x]0.25816594
Q-vector [y]0.89030424
Q-vector [z]0.37511158
absolute magnitude16.47
phase slope0.15
uncertainty0
referenceMPO 745323
observations used364
oppositions14
arc length (days)8814
first opposition used1999
last opposition used2023
residual rms (arc-secs)0.72
perturbers coarse indicatorM-v
perturbers precise indicator003Ek
first observation date used1999-03-22.0
last observation date used2023-05-09.0
computer nameMPCLINUX
JD of orbit computation2456847.601744
perihelion JD uncertainty (days)9.1939E-05
argument of perihelion uncertainty (°)3.0450E-05
ascending node uncertainty (°)2.4761E-05
inclination uncertainty (°)5.9861E-06
eccentricity uncertainty 4.5020E-08
perihelion distance uncertainty (AU)1.2611E-07
Minimum Orbit Intersection Distances (in AU)
for orbit epoch: 2460000.5, reference: E2023-J77
Mercury1.97669
Venus1.6517
Earth1.37067
Mars1.03776
Jupiter2.26531
Saturn6.09911
Uranus15.2856
Neptune27.2294

Observations

374 total observations over interval: 1999 03 22.183290 – 2023 05 09.275374
These data are available for download (format description).

Date (UT) J2000 RA J2000 Dec Magn Location Ref
1999 03 22.183290 09 20 03.215 -00 56 11.96 21.51 V 645 – Apache Point-Sloan Digital Sky Survey MPS 197987
1999 03 22.186762 09 20 03.138 -00 56 10.95 22.37   645 – Apache Point-Sloan Digital Sky Survey MPS 197987
2001 07 13.40073 22 23 45.55 +07 38 18.9 20.0   644 – Palomar Mountain/NEAT MPS 34547
2001 07 13.41155 22 23 45.46 +07 38 23.4 20.0   644 – Palomar Mountain/NEAT MPS 34547
2001 07 13.42361 22 23 45.33 +07 38 29.2 20.3   644 – Palomar Mountain/NEAT MPS 34547
2001 07 31.40270 22 17 37.63 +09 17 10.7 19.8   644 – Palomar Mountain/NEAT MPS 34547
2001 07 31.41332 22 17 37.24 +09 17 13.0 20.0   644 – Palomar Mountain/NEAT MPS 34547
2001 07 31.42424 22 17 36.88 +09 17 15.3 19.8   644 – Palomar Mountain/NEAT MPS 34547
2001 08 10.37918 22 11 13.13 +09 38 16.1 19.6   644 – Palomar Mountain/NEAT MPS 33453
2001 08 10.39068 22 11 12.67 +09 38 16.5 19.0   644 – Palomar Mountain/NEAT MPS 33453
2001 08 10.40094 22 11 12.17 +09 38 17.2 19.4   644 – Palomar Mountain/NEAT MPS 33453
2001 08 16.27364 22 06 45.23 +09 38 04.9 19.5   644 – Palomar Mountain/NEAT MPS 33453
2001 08 16.28457 22 06 44.71 +09 38 04.1 19.3   644 – Palomar Mountain/NEAT MPS 33453
2001 08 16.29547 22 06 44.16 +09 38 03.8 19.3   644 – Palomar Mountain/NEAT MPS 33453
2001 08 20.22075 22 03 36.07 +09 32 40.0 19.2   644 – Palomar Mountain/NEAT MPS 33453
2001 08 20.23187 22 03 35.47 +09 32 39.4 19.1   644 – Palomar Mountain/NEAT MPS 33453
2001 08 20.24307 22 03 34.92 +09 32 37.9 19.2   644 – Palomar Mountain/NEAT MPS 33453
2001 09 08.32364 21 48 56.32 +08 15 00.2 18.7 R 699 – Lowell Observatory-LONEOS MPS 34547
2001 09 08.35181 21 48 55.13 +08 14 51.5   699 – Lowell Observatory-LONEOS MPS 34547
2001 09 08.38008 21 48 53.85 +08 14 41.6   699 – Lowell Observatory-LONEOS MPS 34547
2001 09 08.40847 21 48 52.78 +08 14 31.2   699 – Lowell Observatory-LONEOS MPS 34547
2005 06 13.28272 16 09 16.84 -21 31 24.9 19.8 V G96 – Mt. Lemmon Survey MPS 197987
2005 06 13.28944 16 09 16.48 -21 31 22.6 19.7 V G96 – Mt. Lemmon Survey MPS 197987
2005 06 13.29612 16 09 16.16 -21 31 19.5 19.8 V G96 – Mt. Lemmon Survey MPS 197987
2005 06 13.30281 16 09 15.84 -21 31 17.2 20.2 V G96 – Mt. Lemmon Survey MPS 197987
2006 09 17.36699 01 27 25.74 +26 09 36.9 19.4 V 703 – Catalina Sky Survey MPS 197987
2006 09 17.37668 01 27 25.48 +26 09 36.5 19.9 V 703 – Catalina Sky Survey MPS 197987
2006 09 17.38638 01 27 25.16 +26 09 35.9 19.4 V 703 – Catalina Sky Survey MPS 197987
2006 09 17.39612 01 27 24.91 +26 09 34.7 20.1 V 703 – Catalina Sky Survey MPS 197987
2006 09 28.34327 01 20 56.22 +25 35 45.3 20.1 V 703 – Catalina Sky Survey MPS 197987
2006 09 28.35058 01 20 55.89 +25 35 42.5 19.7 V 703 – Catalina Sky Survey MPS 197987
2006 09 28.35790 01 20 55.60 +25 35 41.6 19.8 V 703 – Catalina Sky Survey MPS 197987
2006 09 28.36515 01 20 55.24 +25 35 37.6 20.4 V 703 – Catalina Sky Survey MPS 197987
2006 10 10.28122 01 11 52.63 +24 21 01.5 19.6 R 644 – Palomar Mountain/NEAT MPS 197987
2006 10 10.30169 01 11 51.62 +24 20 51.9 19.3 R 644 – Palomar Mountain/NEAT MPS 197987
2006 10 10.32217 01 11 50.59 +24 20 42.8 19.4 R 644 – Palomar Mountain/NEAT MPS 197987
2006 10 23.27721 01 01 50.68 +22 24 21.4 19.4 R 644 – Palomar Mountain/NEAT MPS 197987
2006 10 23.29838 01 01 49.75 +22 24 09.0 19.7 R 644 – Palomar Mountain/NEAT MPS 197987
2006 10 23.32071 01 01 48.72 +22 23 55.5 19.7 R 644 – Palomar Mountain/NEAT MPS 197987
2010 06 15.509600 19 09 23.312 -14 07 22.80 20.85 g F51 – Pan-STARRS 1, Haleakala MPS 337264
2010 06 15.520920 19 09 22.803 -14 07 19.48 20.75 g F51 – Pan-STARRS 1, Haleakala MPS 337264
2011 11 22.24263 04 16 27.01 +24 11 25.0 19.5 V 703 – Catalina Sky Survey MPS 401061
2011 11 22.25228 04 16 26.50 +24 11 23.2 19.8 V 703 – Catalina Sky Survey MPS 401061
2011 11 22.26206 04 16 25.89 +24 11 16.6 19.9 V 703 – Catalina Sky Survey MPS 401061
2011 11 22.27177 04 16 25.28 +24 11 13.3 19.8 V 703 – Catalina Sky Survey MPS 401061
2011 11 27.11562 04 11 42.79 +23 37 11.3 19.8 V 691 – Steward Observatory, Kitt Peak-Spacewatch MPS 402310
2011 11 27.14614 04 11 41.00 +23 36 58.2 20.1 V 691 – Steward Observatory, Kitt Peak-Spacewatch MPS 402310
2011 11 27.16392 04 11 39.91 +23 36 51.0 19.7 V 691 – Steward Observatory, Kitt Peak-Spacewatch MPS 402310
2011 11 28.49903 04 10 22.093 +23 27 18.59 20.0 g F51 – Pan-STARRS 1, Haleakala MPS 402310
2011 11 28.52650 04 10 20.454 +23 27 06.43 19.6 r F51 – Pan-STARRS 1, Haleakala MPS 402310
2011 11 28.53942 04 10 19.685 +23 27 00.81 19.6 r F51 – Pan-STARRS 1, Haleakala MPS 402310
2011 11 30.13992 04 08 48.08 +23 15 28.1 19.8 V 691 – Steward Observatory, Kitt Peak-Spacewatch MPS 402310
2011 11 30.16269 04 08 46.72 +23 15 18.6 19.8 V 691 – Steward Observatory, Kitt Peak-Spacewatch MPS 402310
2011 11 30.18356 04 08 45.51 +23 15 09.4 20.0 V 691 – Steward Observatory, Kitt Peak-Spacewatch MPS 402310
2011 12 27.13324 03 48 53.28 +20 14 14.3 20.4 V G96 – Mt. Lemmon Survey MPS 405886
2011 12 27.14189 03 48 53.02 +20 14 11.4 20.4 V G96 – Mt. Lemmon Survey MPS 405886
2011 12 27.15053 03 48 52.81 +20 14 08.4 20.5 V G96 – Mt. Lemmon Survey MPS 405886
2012 01 26.11130 03 48 15.22 +18 26 24.3 21.4 V G96 – Mt. Lemmon Survey MPS 410070
2012 01 26.11653 03 48 15.33 +18 26 23.9 21.0 V G96 – Mt. Lemmon Survey MPS 410070
2012 01 26.12177 03 48 15.44 +18 26 23.4 20.9 V G96 – Mt. Lemmon Survey MPS 410070
2012 01 26.12701 03 48 15.58 +18 26 22.6 21.0 V G96 – Mt. Lemmon Survey MPS 410070
2014 04 28.10011 14 07 48.83 -23 41 29.9 20.4 V W84 – Cerro Tololo-DECam MPS 789563
2014 04 28.10343 14 07 48.65 -23 41 28.5   W84 – Cerro Tololo-DECam MPS 789563
2014 04 28.10674 14 07 48.48 -23 41 27.2   W84 – Cerro Tololo-DECam MPS 789563
2014 04 29.08927 14 06 58.54 -23 34 40.6 20.4 V W84 – Cerro Tololo-DECam MPS 789563
2014 04 29.09249 14 06 58.36 -23 34 39.3   W84 – Cerro Tololo-DECam MPS 789563
2014 04 29.09574 14 06 58.20 -23 34 37.9   W84 – Cerro Tololo-DECam MPS 789563
2014 04 29.09898 14 06 58.03 -23 34 36.6   W84 – Cerro Tololo-DECam MPS 789563
2014 04 29.10222 14 06 57.86 -23 34 35.2   W84 – Cerro Tololo-DECam MPS 789563
2014 04 29.40094 14 06 42.593 -23 32 34.08 20.6 w F51 – Pan-STARRS 1, Haleakala MPS 513687
2014 04 29.41154 14 06 42.024 -23 32 29.70 20.7 w F51 – Pan-STARRS 1, Haleakala MPS 513687
2014 04 29.42212 14 06 41.478 -23 32 25.29 20.6 w F51 – Pan-STARRS 1, Haleakala MPS 513687
2014 04 29.43271 14 06 40.925 -23 32 20.83 20.6 w F51 – Pan-STARRS 1, Haleakala MPS 513687
2014 05 02.09830 14 04 26.74 -23 13 19.7 20.5 V W84 – Cerro Tololo-DECam MPS 789563
2014 05 02.10151 14 04 26.58 -23 13 18.3   W84 – Cerro Tololo-DECam MPS 789563
2014 05 02.10476 14 04 26.41 -23 13 16.8   W84 – Cerro Tololo-DECam MPS 789563
2014 05 02.10800 14 04 26.24 -23 13 15.5   W84 – Cerro Tololo-DECam MPS 789563
2014 05 02.11123 14 04 26.08 -23 13 14.2   W84 – Cerro Tololo-DECam MPS 789563
2014 05 07.39710 14 00 07.741 -22 34 02.28 20.8 r F51 – Pan-STARRS 1, Haleakala MPS 515124
2014 05 07.40898 14 00 07.148 -22 33 56.61 21.0 r F51 – Pan-STARRS 1, Haleakala MPS 515124
2014 05 07.41952 14 00 06.653 -22 33 51.57 20.5 r F51 – Pan-STARRS 1, Haleakala MPS 515125
2014 06 27.29179 13 43 57.736 -17 10 20.94 21.5 w F51 – Pan-STARRS 1, Haleakala MPS 521190
2014 06 27.30416 13 43 57.885 -17 10 18.06 21.3 w F51 – Pan-STARRS 1, Haleakala MPS 521190
2014 06 27.31650 13 43 58.059 -17 10 15.72 21.4 w F51 – Pan-STARRS 1, Haleakala MPS 521190
2015 07 18.38306 22 07 57.36 +06 46 01.0 20.4 r G45 – Space Surveillance Telescope, Atom Site MPS 617448
2015 07 18.39347 22 07 57.12 +06 46 04.5 19.9 r G45 – Space Surveillance Telescope, Atom Site MPS 617448
2015 07 18.39862 22 07 57.02 +06 46 06.0 19.8 r G45 – Space Surveillance Telescope, Atom Site MPS 617448
2015 07 18.40364 22 07 56.91 +06 46 07.8 20.2 r G45 – Space Surveillance Telescope, Atom Site MPS 617448
2015 07 18.40371 22 07 56.89 +06 46 07.5 19.8 r G45 – Space Surveillance Telescope, Atom Site MPS 617448
2015 07 18.55996 22 07 53.743 +06 47 04.59 19.6 w F51 – Pan-STARRS 1, Haleakala MPS 617448
2015 07 18.57207 22 07 53.471 +06 47 08.90 19.6 w F51 – Pan-STARRS 1, Haleakala MPS 617448
2015 07 18.58400 22 07 53.205 +06 47 13.14 19.7 w F51 – Pan-STARRS 1, Haleakala MPS 617448
